Weather History for Springfield, VT

Change the Weather History Date:

Saturday, November 9, 2013

  Actual Average Record
Temperature  
Mean Temperature 33 °F 40 °F  
Max Temperature 42 °F 49 °F 67 °F (2011)
Min Temperature 24 °F 30 °F 14 °F (2003)
Degree Days  
Heating Degree Days 32 25  
Month to date heating degree days 224 216  
Since 1 July heating degree days 999 1025  
Moisture  
Dew Point 21 °F    
Average Humidity 57    
Maximum Humidity 75    
Minimum Humidity 39    
Precipitation  
Precipitation 0.00 in 0.13 in 1.17 in (2005)
Month to date precipitation 0.84 1.25  
Year to date precipitation 33.28 37.80  
Sea Level Pressure  
Sea Level Pressure 30.12 in    
Wind  
Wind Speed 3 mph (West)    
Max Wind Speed 16 mph    
Max Gust Speed 21 mph    
Visibility 10 miles    
Events      
T = Trace of Precipitation, MM = Missing Value Source: NWS Daily Summary

Daily Weather History Graph

Daily Weather History Graph

Search for Another Location

Airport:

Trip Planner

Search our weather history database for the weather conditions in past years. The results will help you decide how hot, cold, wet, or windy it might be!

Date:

Astronomy

Nov. 09, 2013 Rise Set
Actual Time 6:35 AM EST 4:31 PM EST
Civil Twilight 6:05 AM EST 5:01 PM EST
Nautical Twilight 5:31 AM EST 5:35 PM EST
Astronomical Twilight 4:57 AM EST 6:09 PM EST
Moon 12:09 PM EST (11/9) 11:00 PM EST (11/9)
Length of Visible Light 10h 56m
Length of Day
9h 55m
Waxing Crescent, 44% of the Moon is Illuminated
Nov 9
Waxing Crescent
Nov 10
First Quarter
Nov 17
Full
Nov 25
Last Quarter
Dec 2
New

Hourly Weather History & Observations

Time (EST) Temp. Windchill Dew Point Humidity Pressure Visibility Wind Dir Wind Speed Gust Speed Precip Events Conditions
12:54 AM 35.1 °F 25.9 °F 19.9 °F 54% 30.11 in 10.0 mi West 13.8 mph 20.7 mph N/A   Partly Cloudy
1:54 AM 35.1 °F 31.0 °F 19.9 °F 54% 30.13 in 10.0 mi NW 4.6 mph - N/A   Overcast
2:54 AM 34.0 °F 29.8 °F 19.0 °F 54% 30.14 in 10.0 mi WNW 4.6 mph - N/A   Partly Cloudy
3:54 AM 33.1 °F 26.9 °F 18.0 °F 54% 30.15 in 10.0 mi NW 6.9 mph - N/A   Clear
4:54 AM 28.9 °F - 19.9 °F 69% 30.18 in 10.0 mi Calm Calm - N/A   Overcast
5:54 AM 27.0 °F - 19.0 °F 72% 30.19 in 10.0 mi Calm Calm - N/A   Clear
6:54 AM 26.1 °F - 19.0 °F 75% 30.19 in 10.0 mi Calm Calm - N/A   Clear
7:54 AM 30.9 °F - 21.0 °F 67% 30.22 in 10.0 mi Calm Calm - N/A   Clear
8:54 AM 36.0 °F - 21.0 °F 55% 30.21 in 10.0 mi Calm Calm - N/A   Clear
9:54 AM 39.0 °F 34.8 °F 18.0 °F 43% 30.19 in 10.0 mi Variable 5.8 mph - N/A   Clear
10:54 AM 39.9 °F 35.8 °F 18.0 °F 41% 30.18 in 10.0 mi NNW 5.8 mph - N/A   Clear
11:54 AM 39.9 °F 31.8 °F 18.0 °F 41% 30.16 in 10.0 mi West 15.0 mph 20.7 mph N/A   Clear
12:54 PM 41.0 °F - 19.0 °F 41% 30.13 in 10.0 mi Calm Calm - N/A   Mostly Cloudy
1:54 PM 41.0 °F - 19.0 °F 41% 30.11 in 10.0 mi Calm Calm - N/A   Mostly Cloudy
2:54 PM 42.1 °F - 19.0 °F 40% 30.09 in 10.0 mi Calm Calm - N/A   Mostly Cloudy
3:54 PM 41.0 °F 38.0 °F 19.9 °F 43% 30.09 in 10.0 mi WSW 4.6 mph - N/A   Mostly Cloudy
4:54 PM 39.0 °F 35.7 °F 23.0 °F 53% 30.10 in 10.0 mi WSW 4.6 mph - N/A   Overcast
5:54 PM 37.0 °F - 24.1 °F 59% 30.09 in 10.0 mi Calm Calm - N/A   Mostly Cloudy
6:54 PM 36.0 °F - 25.0 °F 64% 30.08 in 10.0 mi Calm Calm - N/A   Overcast
7:54 PM 35.1 °F - 26.1 °F 70% 30.08 in 10.0 mi Calm Calm - N/A   Overcast
8:54 PM 35.1 °F - 27.0 °F 72% 30.07 in 10.0 mi Calm Calm - N/A   Overcast
9:54 PM 35.1 °F - 27.0 °F 72% 30.05 in 10.0 mi Calm Calm - N/A   Overcast
10:54 PM 36.0 °F - 28.0 °F 73% 30.02 in 10.0 mi Calm Calm - N/A   Overcast
11:54 PM 36.0 °F 33.3 °F 28.0 °F 73% 29.99 in 10.0 mi South 3.5 mph - N/A   Overcast